Location: Votelez
(50.0000°N, 15.0000°E)
Time: 10:56:22
(UTC+01:00)

ISS - Pass Details

Date: 19 February 2026
Orbit: 416 x 426 km, 51.6° (Epoch: 10 March)

Event Time Altitude Azimuth Distance (km) Brightness Sun altitude
Exits shadow 05:42:41 26° 257° (WSW) 869 -2.7 -13.6°
Maximum altitude 05:44:28 85° 342° (NNW) 423 -3.8 -13.3°
Drops below altitude 10° 05:47:49 10° 74° (ENE) 1,494 0.3 -12.8°
Sets 05:49:55 0° 75° (ENE) 2,358 1.6 -12.4°
